Grand Forks, ND

11:25 PM CDT on June 25, 2017 (GMT -0500)
Grand Forks International

Weather History for KGFK - March, 2013

Change the Weather History Date:

Monday, March 25, 2013

  Actual Average Record
Temperature  
Mean Temperature 16 °F 30 °F  
Max Temperature 26 °F 39 °F 64 °F (1961)
Min Temperature 5 °F 21 °F -10 °F (1955)
Degree Days  
Heating Degree Days 49 35  
Month to date heating degree days 1308 1039  
Since 1 July heating degree days 8309 8189  
Cooling Degree Days 0 0  
Month to date cooling degree days 0 0  
Year to date cooling degree days 0 0  
Moisture  
Dew Point 14 °F    
Average Humidity 76    
Maximum Humidity 84    
Minimum Humidity 68    
Precipitation  
Precipitation T in 0.03 in 0.87 in (1942)
Month to date precipitation 0.98 0.77  
Year to date precipitation 1.77 1.84  
Snow  
Snow T in 0.10 in 5.40 in (2009)
Month to date snowfall 13.6 6.3  
Since 1 July snowfall 43.5 43.5  
Snow Depth 10.00 in    
Sea Level Pressure  
Sea Level Pressure 30.34 in    
Wind  
Wind Speed 13 mph (NNW)    
Max Wind Speed 20 mph    
Max Gust Speed 23 mph    
Visibility 10 miles    
Events Snow    
T = Trace of Precipitation, MM = Missing Value Source: NWS Daily Summary

Daily Weather History Graph

Daily Weather History Graph

Search for Another Location

Airport or City:

Trip Planner

Search our weather history database for the weather conditions in past years. The results will help you decide how hot, cold, wet, or windy it might be!

Date:

Astronomy

Mar. 25, 2013 Rise Set
Actual Time 7:20 AM CDT 7:49 PM CDT
Civil Twilight 6:49 AM CDT 8:20 PM CDT
Nautical Twilight 6:12 AM CDT 8:57 PM CDT
Astronomical Twilight 5:34 AM CDT 9:35 PM CDT
Moon 6:18 PM CDT (3/25) 6:10 AM CDT (3/25)
Length of Visible Light 13h 30m
Length of Day
12h 28m
Waxing Gibbous, 96% of the Moon is Illuminated
Mar 25
Waxing Gibbous
Mar 27
Full
Apr 2
Last Quarter
Apr 10
New
Apr 18
First Quarter

Hourly Weather History & Observations

Time (CDT) Temp. Windchill Dew Point Humidity Pressure Visibility Wind Dir Wind Speed Gust Speed Precip Events Conditions
12:53 AM 21.0 °F 7.6 °F 17.1 °F 85% 30.28 in 10.0 mi North 15.0 mph - N/A   Overcast
1:53 AM 21.0 °F 8.1 °F 17.1 °F 85% 30.28 in 10.0 mi NNW 13.8 mph - N/A   Overcast
2:53 AM 21.0 °F 8.6 °F 17.1 °F 85% 30.28 in 10.0 mi NNW 12.7 mph - N/A   Overcast
3:53 AM 21.0 °F 7.1 °F 17.1 °F 85% 30.28 in 10.0 mi NNW 16.1 mph - N/A   Overcast
4:53 AM 21.0 °F 6.6 °F 16.0 °F 81% 30.29 in 10.0 mi NNW 17.3 mph - N/A   Overcast
5:53 AM 19.9 °F 5.2 °F 16.0 °F 85% 30.30 in 10.0 mi NNW 17.3 mph - N/A   Overcast
6:53 AM 19.9 °F 7.9 °F 15.1 °F 81% 30.32 in 10.0 mi North 11.5 mph - N/A   Overcast
7:53 AM 19.9 °F 5.2 °F 15.1 °F 81% 30.34 in 10.0 mi NNW 17.3 mph - N/A   Overcast
8:53 AM 19.9 °F 5.7 °F 15.1 °F 81% 30.35 in 9.0 mi NNW 16.1 mph - 0.00 in Snow Light Snow
9:53 AM 19.9 °F 5.2 °F 16.0 °F 85% 30.36 in 9.0 mi North 17.3 mph - 0.00 in Snow Light Snow
10:53 AM 21.9 °F 7.8 °F 16.0 °F 78% 30.37 in 9.0 mi NNW 17.3 mph - 0.00 in   Overcast
11:53 AM 23.0 °F 9.2 °F 18.0 °F 81% 30.36 in 10.0 mi NNW 17.3 mph - N/A   Overcast
12:53 PM 25.0 °F 13.1 °F 19.0 °F 78% 30.36 in 10.0 mi North 13.8 mph - N/A   Scattered Clouds
1:53 PM 25.0 °F 12.2 °F 17.1 °F 72% 30.36 in 10.0 mi North 16.1 mph - N/A   Scattered Clouds
2:53 PM 25.0 °F 11.3 °F 16.0 °F 69% 30.35 in 10.0 mi NNW 18.4 mph - N/A   Mostly Cloudy
3:42 PM 24.8 °F 11.9 °F 15.8 °F 69% 30.30 in 10.0 mi North 16.1 mph - N/A   Scattered Clouds
3:53 PM 24.1 °F 10.6 °F 16.0 °F 71% 30.35 in 10.0 mi North 17.3 mph - N/A   Scattered Clouds
4:53 PM 24.1 °F 11.0 °F 15.1 °F 69% 30.35 in 10.0 mi NNW 16.1 mph - N/A   Scattered Clouds
5:53 PM 23.0 °F 11.1 °F 15.1 °F 72% 30.36 in 10.0 mi North 12.7 mph - N/A   Partly Cloudy
6:53 PM 21.9 °F 11.0 °F 14.0 °F 72% 30.36 in 10.0 mi NNW 10.4 mph - N/A   Partly Cloudy
7:53 PM 16.0 °F 5.3 °F 10.9 °F 81% 30.37 in 10.0 mi NW 8.1 mph - N/A   Partly Cloudy
8:53 PM 12.9 °F 1.6 °F 9.0 °F 84% 30.38 in 10.0 mi NW 8.1 mph - N/A   Clear
9:53 PM 10.9 °F 1.4 °F 7.0 °F 84% 30.38 in 10.0 mi WNW 5.8 mph - N/A   Clear
10:53 PM 9.0 °F -2.2 °F 5.0 °F 84% 30.38 in 10.0 mi WNW 6.9 mph - N/A   Clear
11:53 PM 8.1 °F -2.0 °F 3.9 °F 83% 30.38 in 10.0 mi WNW 5.8 mph - N/A   Clear